H1 CPF 2 NER 2025 12 12 9 346 01 glonass132 H2 1401201 9132 39620 2025 12 12 0 0 0 2025 12 15 23 45 0 900 1 1 0 0 0 1 H9 10 0 61021 0.00000 0 -11310005.164 1388207.393 -22794445.727 10 0 61021 900.00000 0 -12839534.678 -924143.698 -21990711.796 10 0 61021 1800.00000 0 -14463253.408 -3015198.837 -20758571.777 10 0 61021 2700.00000 0 -16124646.247 -4844482.755 -19121916.463 10 0 61021 3600.00000 0 -17762075.860 -6383251.078 -17112556.055 10 0 61021 4500.00000 0 -19311332.689 -7615443.796 -14769602.117 10 0 61021 5400.00000 0 -20708315.335 -8538100.922 -12138702.682 10 0 61021 6300.00000 0 -21891727.558 -9161223.449 -9271145.537 10 0 61021 7200.00000 0 -22805677.042 -9507086.393 -6222847.726 10 0 61021 8100.00000 0 -23402065.025 -9609034.399 -3053251.942 10 0 61021 9000.00000 0 -23642664.761 -9509812.585 175847.367 10 0 61021 9900.00000 0 -23500800.063 -9259505.372 3401523.687 10 0 61021 10800.00000 0 -22962552.549 -8913172.813 6560958.515 10 0 61021 11700.00000 0 -22027446.529 -8528286.744 9592676.061 10 0 61021 12600.00000 0 -20708583.061 -8162077.342 12437747.230 10 0 61021 13500.00000 0 -19032218.359 -7868904.020 15040938.470 10 0 61021 14400.00000 0 -17036805.340 -7697762.925 17351782.798 10 0 61021 15300.00000 0 -14771539.808 -7690036.890 19325552.273 10 0 61021 16200.00000 0 -12294473.280 -7877582.676 20924113.760 10 0 61021 17100.00000 0 -9670272.198 -8281235.536 22116652.577 10 0 61021 18000.00000 0 -6967717.449 -8909793.078 22880251.490 10 0 61021 18900.00000 0 -4257048.166 -9759520.004 23200315.620 10 0 61021 19800.00000 0 -1607259.495 -10814193.422 23070836.782 10 0 61021 20700.00000 0 916534.755 -12045685.932 22494493.740 10 0 61021 21600.00000 0 3255566.982 -13415061.566 21482587.791 10 0 61021 22500.00000 0 5359608.129 -14874138.653 20054815.794 10 0 61021 23400.00000 0 7188798.865 -16367454.631 18238885.523 10 0 61021 24300.00000 0 8715045.966 -17834551.483 16069980.725 10 0 61021 25200.00000 0 9922928.073 -19212487.373 13590085.790 10 0 61021 26100.00000 0 10810074.981 -20438470.725 10847182.279 10 0 61021 27000.00000 0 11387006.117 -21452507.844 7894331.814 10 0 61021 27900.00000 0 11676435.950 -22199954.403 4788661.852 10 0 61021 28800.00000 0 11712075.903 -22633864.713 1590272.800 10 0 61021 29700.00000 0 11536983.098 -22717040.754 -1638913.508 10 0 61021 30600.00000 0 11201525.083 -22423694.928 -4836342.679 10 0 61021 31500.00000 0 10761045.678 -21740656.183 -7940031.655 10 0 61021 32400.00000 0 10273329.798 -20668067.809 -10889764.884 10 0 61021 33300.00000 0 9795973.638 -19219546.050 -13628259.899 10 0 61021 34200.00000 0 9383770.981 -17421791.046 -16102279.769 10 0 61021 35100.00000 0 9086225.938 -15313664.303 -18263670.749 10 0 61021 36000.00000 0 8945297.530 -12944769.128 -20070304.771 10 0 61021 36900.00000 0 8993472.105 -10373591.404 -21486907.964 10 0 61021 37800.00000 0 9252246.091 -7665276.464 -22485758.603 10 0 61021 38700.00000 0 9731084.624 -4889133.346 -23047240.170 10 0 61021 39600.00000 0 10426901.705 -2115969.391 -23160237.906 10 0 61021 40500.00000 0 11324085.684 584634.428 -22822370.176 10 0 61021 41400.00000 0 12395070.877 3146994.220 -22040049.090 10 0 61021 42300.00000 0 13601432.878 5511828.528 -20828368.095 10 0 61021 43200.00000 0 14895462.778 7628493.581 -19210817.704 10 0 61021 44100.00000 0 16222154.823 9456854.755 -17218833.998 10 0 61021 45000.00000 0 17521524.069 10968715.668 -14891188.063 10 0 61021 45900.00000 0 18731156.069 12148744.985 -12273227.940 10 0 61021 46800.00000 0 19788880.297 12994862.318 -9415987.956 10 0 61021 47700.00000 0 20635453.313 13518067.662 -6375183.337 10 0 61021 48600.00000 0 21217136.976 13741722.759 -3210110.673 10 0 61021 49500.00000 0 21488061.371 13700316.311 17523.054 10 0 61021 50400.00000 0 21412271.340 13437767.205 3244818.451 10 0 61021 51300.00000 0 20965369.168 13005339.736 6408923.330 10 0 61021 52200.00000 0 20135683.556 12459261.302 9448268.247 10 0 61021 53100.00000 0 18924915.450 11858145.548 12303772.517 10 0 61021 54000.00000 0 17348233.943 11260331.766 14919996.330 10 0 61021 54900.00000 0 15433818.920 10721254.389 17246216.097 10 0 61021 55800.00000 0 13221870.615 10290954.405 19237402.233 10 0 61021 56700.00000 0 10763128.601 10011837.821 20855081.063 10 0 61021 57600.00000 0 8116962.928 9916775.098 22068065.281 10 0 61021 58500.00000 0 5349117.606 10027620.600 22853040.305 10 0 61021 59400.00000 0 2529200.411 10354212.960 23194996.909 10 0 61021 60300.00000 0 -271977.135 10893896.932 23087503.509 10 0 61021 61200.00000 0 -2985100.237 11631585.442 22532814.469 10 0 61021 62100.00000 0 -5544981.324 12540358.208 21541813.664 10 0 61021 63000.00000 0 -7893013.499 13582571.210 20133795.344 10 0 61021 63900.00000 0 -9979347.440 14711430.413 18336086.995 10 0 61021 64800.00000 0 -11764703.747 15872964.175 16183521.533 10 0 61021 65700.00000 0 -13221747.716 17008312.526 13717768.548 10 0 61021 66600.00000 0 -14335971.312 18056238.436 10986536.784 10 0 61021 67500.00000 0 -15106047.209 18955757.032 8042662.229 10 0 61021 68400.00000 0 -15543641.280 19648773.638 4943098.236 10 0 61021 69300.00000 0 -15672692.040 20082620.886 1747826.043 10 0 61021 70200.00000 0 -15528187.427 20212388.944 -1481294.362 10 0 61021 71100.00000 0 -15154490.141 20002951.129 -4681711.777 10 0 61021 72000.00000 0 -14603281.430 19430599.372 -7791387.476 10 0 61021 72900.00000 0 -13931209.317 18484219.881 -10749992.271 10 0 61021 73800.00000 0 -13197339.690 17165958.184 -13500074.109 10 0 61021 74700.00000 0 -12460517.215 15491343.737 -15988173.625 10 0 61021 75600.00000 0 -11776747.086 13488866.702 -18165865.942 10 0 61021 76500.00000 0 -11196708.018 11199022.249 -19990708.267 10 0 61021 77400.00000 0 -10763501.785 8672860.015 -21427074.421 10 0 61021 78300.00000 0 -10510734.881 5970097.143 -22446859.537 10 0 61021 79200.00000 0 -10461014.257 3156871.700 -23030040.516 10 0 61021 80100.00000 0 -10624921.878 303228.669 -23165080.465 10 0 61021 81000.00000 0 -11000512.782 -2519557.812 -22849168.286 10 0 61021 81900.00000 0 -11573359.362 -5241715.034 -22088287.696 10 0 61021 82800.00000 0 -12317141.435 -7797641.515 -20897113.249 10 0 61021 83700.00000 0 -13194758.408 -10128404.581 -19298734.361 10 0 61021 84600.00000 0 -14159917.495 -12183961.170 -17324211.796 10 0 61021 85500.00000 0 -15159131.312 -13925008.615 -15011974.621 10 0 61022 0.00000 0 -16134040.279 -15324387.579 -12407069.292 10 0 61022 900.00000 0 -17023961.601 -16367978.952 -9560274.121 10 0 61022 1800.00000 0 -17768554.677 -17055055.582 -6527100.464 10 0 61022 2700.00000 0 -18310490.563 -17398077.358 -3366696.376 10 0 61022 3600.00000 0 -18598009.754 -17421937.615 -140678.813 10 0 61022 4500.00000 0 -18587259.051 -17162695.208 3088082.623 10 0 61022 5400.00000 0 -18244307.364 -16665847.740 6256704.838 10 0 61022 6300.00000 0 -17546754.301 -15984221.186 9303527.568 10 0 61022 7200.00000 0 -16484863.130 -15175567.315 12169321.416 10 0 61022 8100.00000 0 -15062170.333 -14299972.484 14798443.132 10 0 61022 9000.00000 0 -13295546.444 -13417188.802 17139915.216 10 0 61022 9900.00000 0 -11214706.317 -12584001.322 19148408.911 10 0 61022 10800.00000 0 -8861190.155 -11851742.618 20785112.165 10 0 61022 11700.00000 0 -6286858.685 -11264059.077 22018466.846 10 0 61022 12600.00000 0 -3551965.838 -10855021.959 22824762.411 10 0 61022 13500.00000 0 -722889.419 -10647661.203 23188576.241 10 0 61022 14400.00000 0 2130386.237 -10652981.886 23103053.899 10 0 61022 15300.00000 0 4936931.853 -10869502.862 22570025.495 10 0 61022 16200.00000 0 7627570.027 -11283335.379 21599957.280 10 0 61022 17100.00000 0 10137497.203 -11868797.188 20211740.354 10 0 61022 18000.00000 0 12408724.145 -12589535.636 18432321.076 10 0 61022 18900.00000 0 14392235.902 -13400112.457 16296180.361 10 0 61022 19800.00000 0 16049783.771 -14247984.115 13844671.516 10 0 61022 20700.00000 0 17355236.733 -15075795.261 11125228.640 10 0 61022 21600.00000 0 18295437.784 -15823890.061 8190459.912 10 0 61022 22500.00000 0 18870530.699 -16432936.943 5097142.064 10 0 61022 23400.00000 0 19093744.337 -16846557.471 1905134.360 10 0 61022 24300.00000 0 18990643.854 -17013849.522 -1323768.078 10 0 61022 25200.00000 0 18597880.112 -16891698.982 -4527020.391 10 0 61022 26100.00000 0 17961489.340 -16446782.546 -7642531.355 10 0 61022 27000.00000 0 17134813.890 -15657176.649 -10609861.251 10 0 61022 27900.00000 0 16176130.818 -14513503.607 -13371391.407 10 0 61022 28800.00000 0 15146087.415 -13019565.037 -15873442.786 10 0 61022 29700.00000 0 14105051.153 -11192433.777 -18067321.894 10 0 61022 30600.00000 0 13110485.340 -9061998.007 -19910273.447 10 0 61022 31500.00000 0 12214461.032 -6669974.103 -21366320.848 10 0 61022 32400.00000 0 11461410.313 -4068427.011 -22406977.618 10 0 61022 33300.00000 0 10886216.180 -1317857.644 -23011815.206 10 0 61022 34200.00000 0 10512720.386 1515064.818 -23168875.302 10 0 61022 35100.00000 0 10352713.176 4360032.653 -22874917.643 10 0 61022 36000.00000 0 10405448.653 7145786.950 -22135497.462 10 0 61022 36900.00000 0 10657707.336 9802851.042 -20964869.955 10 0 61022 37800.00000 0 11084404.274 12266196.132 -19385722.621 10 0 61022 38700.00000 0 11649717.745 14477727.617 -17428739.746 10 0 61022 39600.00000 0 12308691.224 16388487.759 -15132006.883 10 0 61022 40500.00000 0 13009240.758 17960482.049 -12540266.585 10 0 61022 41400.00000 0 13694482.297 19168052.441 -9704039.921 10 0 61022 42300.00000 0 14305279.407 19998739.708 -6678631.450 10 0 61022 43200.00000 0 14782902.128 20453599.128 -3523037.920 10 0 61022 44100.00000 0 15071682.780 20546957.035 -298783.272 10 0 61022 45000.00000 0 15121554.559 20305619.909 2931295.821 10 0 61022 45900.00000 0 14890363.975 19767571.157 6104288.525 10 0 61022 46800.00000 0 14345857.994 18980212.688 9158446.875 10 0 61022 47700.00000 0 13467261.098 17998227.738 12034395.731 10 0 61022 48600.00000 0 12246375.271 16881157.229 14676291.174 10 0 61022 49500.00000 0 10688156.582 15690793.706 17032904.319 10 0 61022 50400.00000 0 8810744.534 14488503.980 19058609.485 10 0 61022 51300.00000 0 6644943.517 13332593.869 20714258.199 10 0 61022 52200.00000 0 4233178.765 12275825.828 21967923.143 10 0 61022 53100.00000 0 1627970.975 11363193.037 22795499.099 10 0 61022 54000.00000 0 -1110006.546 10630042.057 23181150.974 10 0 61022 54900.00000 0 -3914207.497 10100621.012 23117601.974 10 0 61022 55800.00000 0 -6714734.847 9787112.210 22606258.002 10 0 61022 56700.00000 0 -9441002.128 9689187.735 21657167.248 10 0 61022 57600.00000 0 -12024424.936 9794104.892 20288816.733 10 0 61022 58500.00000 0 -14401032.848 10077336.172 18527770.275 10 0 61022 59400.00000 0 -16513895.452 10503706.449 16408154.943 10 0 61022 60300.00000 0 -18315263.866 11028989.444 13971005.528 10 0 61022 61200.00000 0 -19768340.680 11601896.633 11263478.975 10 0 61022 62100.00000 0 -20848606.330 12166375.674 8337952.938 10 0 61022 63000.00000 0 -21544647.910 12664122.588 5251024.714 10 0 61022 63900.00000 0 -21858456.654 13037202.930 2062428.733 10 0 61022 64800.00000 0 -21805181.997 13230672.430 -1166107.604 10 0 61022 65700.00000 0 -21412352.455 13195087.263 -4372048.601 10 0 61022 66600.00000 0 -20718595.553 12888798.285 -7493253.301 10 0 61022 67500.00000 0 -19771909.823 12279932.193 -10469174.142 10 0 61022 68400.00000 0 -18627560.636 11347975.210 -13242028.393 10 0 61022 69300.00000 0 -17345687.435 10084891.091 -15757919.735 10 0 61022 70200.00000 0 -15988722.235 8495724.481 -17967888.201 10 0 61022 71100.00000 0 -14618727.315 6598661.836 -19828867.850 10 0 61022 72000.00000 0 -13294763.780 4424544.774 -21304533.165 10 0 61022 72900.00000 0 -12070401.571 2015853.534 -22366017.166 10 0 61022 73800.00000 0 -10991475.881 -574799.536 -22992486.579 10 0 61022 74700.00000 0 -10094184.866 -3286605.783 -23171562.007 10 0 61022 75600.00000 0 -9403609.361 -6052846.466 -22899573.985 10 0 61022 76500.00000 0 -8932717.724 -8803435.403 -22181648.838 10 0 61022 77400.00000 0 -8681898.582 -11467612.814 -21031621.635 10 0 61022 78300.00000 0 -8639041.871 -13976678.325 -19471776.849 10 0 61022 79200.00000 0 -8780165.320 -16266648.923 -17532420.884 10 0 61022 80100.00000 0 -9070560.105 -18280730.324 -15251294.119 10 0 61022 81000.00000 0 -9466407.095 -19971497.756 -12672833.580 10 0 61022 81900.00000 0 -9916794.691 -21302694.206 -9847300.615 10 0 61022 82800.00000 0 -10366051.787 -22250570.231 -6829791.087 10 0 61022 83700.00000 0 -10756295.604 -22804709.014 -3679148.258 10 0 61022 84600.00000 0 -11030084.768 -22968302.347 -456800.814 10 0 61022 85500.00000 0 -11133063.386 -22757866.819 2774449.786 10 0 61023 0.00000 0 -11016482.393 -22202413.669 5951667.043 10 0 61023 900.00000 0 -10639489.794 -21342108.743 9013018.275 10 0 61023 1800.00000 0 -9971091.929 -20226481.955 11898984.773 10 0 61023 2700.00000 0 -8991702.014 -18912262.821 14553524.412 10 0 61023 3600.00000 0 -7694210.418 -17460935.845 16925159.318 10 0 61023 4500.00000 0 -6084531.747 -15936119.930 18967969.161 10 0 61023 5400.00000 0 -4181606.168 -14400883.011 20642471.103 10 0 61023 6300.00000 0 -2016855.462 -12915104.908 21916370.424 10 0 61023 7200.00000 0 366882.877 -11532998.635 22765168.699 10 0 61023 8100.00000 0 2916898.658 -10300892.844 23172619.472 10 0 61023 9000.00000 0 5572564.828 -9255366.613 23131024.350 10 0 61023 9900.00000 0 8267625.146 -8421812.545 22641365.439 10 0 61023 10800.00000 0 10932719.493 -7813486.070 21713272.943 10 0 61023 11700.00000 0 13498043.292 -7431078.565 20364829.562 10 0 61023 12600.00000 0 15896032.267 -7262830.301 18622216.023 10 0 61023 13500.00000 0 18063962.959 -7285177.001 16519204.677 10 0 61023 14400.00000 0 19946362.984 -7463902.021 14096510.609 10 0 61023 15300.00000 0 21497132.645 -7755745.453 11401012.047 10 0 61023 16200.00000 0 22681291.269 -8110402.661 8484854.193 10 0 61023 17100.00000 0 23476276.778 -8472828.808 5404452.593 10 0 61023 18000.00000 0 23872745.094 -8785753.066 2219414.176 10 0 61023 18900.00000 0 23874836.381 -8992297.437 -1008604.343 10 0 61023 19800.00000 0 23499896.896 -9038590.452 -4217079.602 10 0 61023 20700.00000 0 22777667.640 -8876265.851 -7343824.174 10 0 61023 21600.00000 0 21748973.068 -8464740.823 -10328185.890 10 0 61023 22500.00000 0 20463963.868 -7773177.072 -13112221.076 10 0 61023 23400.00000 0 18979986.537 -6782040.925 -15641819.041 10 0 61023 24300.00000 0 17359168.197 -5484195.048 -17867755.992 10 0 61023 25200.00000 0 15665817.157 -3885473.652 -19746657.698 10 0 61023 26100.00000 0 13963747.740 -2004714.516 -21241851.759 10 0 61023 27000.00000 0 12313641.299 126756.255 -22324092.387 10 0 61023 27900.00000 0 10770554.099 2466167.875 -22972142.908 10 0 61023 28800.00000 0 9381676.887 4960835.785 -23173203.784 10 0 61023 29700.00000 0 8184440.622 7550118.072 -22923176.870 10 0 61023 30600.00000 0 7205048.469 10167717.423 -22226759.711 10 0 61023 31500.00000 0 6457496.379 12744233.662 -21097366.953 10 0 61023 32400.00000 0 5943123.986 15209860.923 -19556879.351 10 0 61023 33300.00000 0 5650715.089 17497116.856 -17635224.338 10 0 61023 34200.00000 0 5557143.586 19543489.373 -15369795.647 10 0 61023 35100.00000 0 5628537.300 21293889.487 -12804722.930 10 0 61023 36000.00000 0 5821909.838 22702806.689 -9990005.601 10 0 61023 36900.00000 0 6087190.337 23736075.638 -6980528.285 10 0 61023 37800.00000 0 6369563.646 24372179.503 -3834977.915 10 0 61023 38700.00000 0 6612020.054 24603035.028 -614684.843 10 0 61023 39600.00000 0 6758004.528 24434226.689 2617587.901 10 0 61023 40500.00000 0 6754051.301 23884681.021 5798881.989 10 0 61023 41400.00000 0 6552290.407 22985796.234 8867282.099 10 0 61023 42300.00000 0 6112718.642 21780065.585 11763129.615 10 0 61023 43200.00000 0 5405137.906 20319254.401 14430187.099 10 0 61023 44100.00000 0 4410678.509 18662209.385 16816730.332 10 0 61023 45000.00000 0 3122843.156 16872393.961 18876546.686 10 0 61023 45900.00000 0 1548027.919 15015254.326 20569821.018 10 0 61023 46800.00000 0 -294501.164 13155527.222 21863892.926 10 0 61023 47700.00000 0 -2373174.359 11354602.088 22733872.147 10 0 61023 48600.00000 0 -4645203.200 9668047.063 23163101.843 10 0 61023 49500.00000 0 -7058138.734 8143400.760 23143462.576 10 0 61023 50400.00000 0 -9551838.245 6818320.060 22675512.745 10 0 61023 51300.00000 0 -12060759.228 5719158.946 21768464.165 10 0 61023 52200.00000 0 -14516486.305 4860035.335 20439994.299 10 0 61023 53100.00000 0 -16850387.417 4242422.620 18715899.351 10 0 61023 54000.00000 0 -18996290.633 3855281.057 16629595.060 10 0 61023 54900.00000 0 -20893072.093 3675722.022 14221474.466 10 0 61023 55800.00000 0 -22487049.191 3670176.356 11538134.409 10 0 61023 56700.00000 0 -23734080.941 3796017.393 8631484.721 10 0 61023 57600.00000 0 -24601289.277 4003570.575 5557756.127 10 0 61023 58500.00000 0 -25068330.277 4238425.546 2376424.915 10 0 61023 59400.00000 0 -25128162.586 4443954.032 -850926.012 10 0 61023 60300.00000 0 -24787280.850 4563927.978 -4061788.703 10 0 61023 61200.00000 0 -24065403.828 4545128.049 -7193932.252 10 0 61023 62100.00000 0 -22994629.395 4339832.571 -10186602.765 10 0 61023 63000.00000 0 -21618090.749 3908081.611 -12981698.351 10 0 61023 63900.00000 0 -19988168.890 3219619.907 -15524896.464 10 0 61023 64800.00000 0 -18164335.113 2255435.388 -17766711.741 10 0 61023 65700.00000 0 -16210712.773 1008826.630 -19663463.542 10 0 61023 66600.00000 0 -14193459.631 -514047.932 -21178134.043 10 0 61023 67500.00000 0 -12178079.753 -2294164.689 -22281099.623 10 0 61023 68400.00000 0 -10226777.181 -4300176.390 -22950720.675 10 0 61023 69300.00000 0 -8395962.177 -6489480.452 -23173777.469 10 0 61023 70200.00000 0 -6734014.633 -8809771.760 -22945742.659 10 0 61023 71100.00000 0 -5279398.739 -11201017.023 -22270884.050 10 0 61023 72000.00000 0 -4059208.415 -13597769.627 -21162194.528 10 0 61023 72900.00000 0 -3088204.948 -15931729.088 -19641149.475 10 0 61023 73800.00000 0 -2368387.572 -18134438.438 -17737295.448 10 0 61023 74700.00000 0 -1889115.078 -20140006.360 -15487677.441 10 0 61023 75600.00000 0 -1627773.012 -21887739.456 -12936115.519 10 0 61023 76500.00000 0 -1550957.614 -23324573.366 -10132344.892 10 0 61023 77400.00000 0 -1616125.319 -24407199.662 -7131036.661 10 0 61023 78300.00000 0 -1773636.526 -25103798.326 -3990719.176 10 0 61023 79200.00000 0 -1969105.259 -25395302.353 -772622.257 10 0 61023 80100.00000 0 -2145953.106 -25276141.139 2460531.663 10 0 61023 81000.00000 0 -2248057.132 -24754431.760 5645764.261 10 0 61023 81900.00000 0 -2222377.609 -23851611.016 8721080.238 10 0 61023 82800.00000 0 -2021452.574 -22601525.099 11626682.853 10 0 61023 83700.00000 0 -1605652.405 -21049016.891 14306141.362 10 0 61023 84600.00000 0 -945098.340 -19248072.054 16707487.131 10 0 61023 85500.00000 0 -21163.666 -17259603.474 18784217.040 10 0 61024 0.00000 0 1172505.386 -15148968.485 20496185.107 10 0 61024 900.00000 0 2629492.234 -12983322.534 21810366.937 10 0 61024 1800.00000 0 4330654.623 -10828922.981 22701481.357 10 0 61024 2700.00000 0 6244711.055 -8748491.348 23152461.951 10 0 61024 3600.00000 0 8329342.520 -6798745.653 23154768.745 10 0 61024 4500.00000 0 10532764.039 -5028202.790 22708536.648 10 0 61024 5400.00000 0 12795700.693 -3475340.504 21822559.033 10 0 61024 6300.00000 0 15053686.640 -2167193.071 20514107.820 10 0 61024 7200.00000 0 17239592.480 -1118436.771 18808594.147 10 0 61024 8100.00000 0 19286277.290 -331001.036 16739076.334 10 0 61024 9000.00000 0 21129256.559 205780.435 14345624.334 10 0 61024 9900.00000 0 22709276.557 514486.315 11674552.270 10 0 61024 10800.00000 0 23974689.393 628421.580 8777532.959 10 0 61024 11700.00000 0 24883530.979 589978.864 5710610.339 10 0 61024 12600.00000 0 25405215.971 448616.008 2533127.775 10 0 61024 13500.00000 0 25521779.299 258534.488 -693408.223 10 0 61024 14400.00000 0 25228612.265 76156.001 -3906507.919 10 0 61024 15300.00000 0 24534661.861 -42496.984 -7043899.873 10 0 61024 16200.00000 0 23462084.006 -44406.492 -10044731.441 10 0 61024 17100.00000 0 22045363.984 117959.747 -12850745.424 10 0 61024 18000.00000 0 20329939.462 484396.318 -15407410.189 10 0 61024 18900.00000 0 18370382.287 1085033.257 -17664981.347 10 0 61024 19800.00000 0 16228213.721 1938817.001 -19579474.168 10 0 61024 20700.00000 0 13969443.315 3052465.034 -21113527.460 10 0 61024 21600.00000 0 11661933.370 4419940.490 -22237141.561 10 0 61024 22500.00000 0 9372698.484 6022471.345 -22928275.432 10 0 61024 23400.00000 0 7165252.759 7829115.965 -23173290.342 10 0 61024 24300.00000 0 5097115.474 9797853.765 -22967230.580 10 0 61024 25200.00000 0 3217579.677 11877157.490 -22313934.661 10 0 61024 26100.00000 0 1565837.441 14007982.958 -21225973.741 10 0 61024 27000.00000 0 169540.573 16126094.138 -19724417.427 10 0 61024 27900.00000 0 -956142.581 18164626.755 -17838430.550 10 0 61024 28800.00000 0 -1808934.589 20056782.957 -15604708.090 10 0 61024 29700.00000 0 -2399303.769 21738543.494 -13066758.830 10 0 61024 30600.00000 0 -2749773.192 23151282.658 -10274051.694 10 0 61024 31500.00000 0 -2893714.054 24244174.982 -7281041.834 10 0 61024 32400.00000 0 -2873675.922 24976291.331 -4146096.291 10 0 61024 33300.00000 0 -2739326.325 25318295.242 -930341.387 10 0 61024 34200.00000 0 -2545089.030 25253667.451 2303544.167 10 0 61024 35100.00000 0 -2347583.263 24779406.927 5492565.259 10 0 61024 36000.00000 0 -2202974.487 23906179.293 8574649.822 10 0 61024 36900.00000 0 -2164350.867 22657907.270 11489866.108 10 0 61024 37800.00000 0 -2279237.939 21070821.704 14181593.049 10 0 61024 38700.00000 0 -2587357.671 19192014.575 16597620.381 10 0 61024 39600.00000 0 -3118726.962 17077556.292 18691157.029 10 0 61024 40500.00000 0 -3892175.831 14790257.550 20421728.723 10 0 61024 41400.00000 0 -4914347.207 12397170.356 21755948.427 10 0 61024 42300.00000 0 -6179219.706 9966933.056 22668146.033 10 0 61024 43200.00000 0 -7668172.632 7567069.901 23140846.806 10 0 61024 44100.00000 0 -9350589.827 5261356.689 23165091.074 10 0 61024 45000.00000 0 -11184976.687 3107360.671 22740590.627 10 0 61024 45900.00000 0 -13120543.632 1154254.992 21875720.257 10 0 61024 46800.00000 0 -15099190.367 -559003.846 20587345.671 10 0 61024 47700.00000 0 -17057808.956 -2005062.119 18900491.730 10 0 61024 48600.00000 0 -18930810.884 -3169063.416 16847857.612 10 0 61024 49500.00000 0 -20652774.170 -4049016.475 14469187.966 10 0 61024 50400.00000 0 -22161101.666 -4655622.760 11810511.581 10 0 61024 51300.00000 0 -23398581.061 -5011572.303 8923261.313 10 0 61024 52200.00000 0 -24315740.995 -5150338.105 5863291.134 10 0 61024 53100.00000 0 -24872905.687 -5114519.909 2689808.166 10 0 61024 54000.00000 0 -25041862.646 -4953806.868 -535760.855 10 0 61024 54900.00000 0 -24807073.631 -4722644.410 -3750947.788 10 0 61024 55800.00000 0 -24166377.609 -4477703.084 -6893443.980 10 0 61024 56700.00000 0 -23131155.297 -4275255.657 -9902301.265 10 0 61024 57600.00000 0 -21725947.012 -4168572.857 -12719110.217 10 0 61024 58500.00000 0 -19987538.217 -4205447.735 -15289132.981 10 0 61024 59400.00000 0 -17963549.303 -4425953.615 -17562368.718 10 0 61024 60300.00000 0 -15710586.841 -4860531.180 -19494530.796 10 0 61024 61200.00000 0 -13292032.045 -5528486.776 -21047916.357 10 0 61024 62100.00000 0 -10775557.471 -6436967.071 -22192150.832 10 0 61024 63000.00000 0 -8230474.592 -7580455.399 -22904792.269 10 0 61024 63900.00000 0 -5725022.315 -8940813.344 -23171782.831 10 0 61024 64800.00000 0 -3323709.257 -10487868.177 -22987737.749 10 0 61024 65700.00000 0 -1084820.641 -12180523.708 -22356065.014 10 0 61024 66600.00000 0 941805.830 -13968349.786 -21288912.387 10 0 61024 67500.00000 0 2716641.864 -15793585.135 -19806941.660 10 0 61024 68400.00000 0 4211890.068 -17593470.312 -17938933.630 10 0 61024 69300.00000 0 5412405.268 -19302813.021 -15721230.746 10 0 61024 70200.00000 0 6316077.144 -20856677.679 -13197027.873 10 0 61024 71100.00000 0 6933658.582 -22193085.335 -10415524.937 10 0 61024 72000.00000 0 7288047.882 -23255609.147 -7430958.409 10 0 61024 72900.00000 0 7413056.503 -23995754.875 -4301531.320 10 0 61024 73800.00000 0 7351716.159 -24375024.811 -1088263.863 10 0 61024 74700.00000 0 7154198.973 -24366577.172 2146211.496 10 0 61024 75600.00000 0 6875440.993 -23956410.404 5338885.261 10 0 61024 76500.00000 0 6572571.952 -23144022.373 8427610.841 10 0 61024 77400.00000 0 6302262.216 -21942517.083 11352323.552 10 0 61024 78300.00000 0 6118100.938 -20378155.303 14056213.884 10 0 61024 79200.00000 0 6068117.562 -18489369.171 16486831.588 10 0 61024 80100.00000 0 6192552.100 -16325283.475 18597099.040 10 0 61024 81000.00000 0 6521968.376 -13943806.899 20346214.664 10 0 61024 81900.00000 0 7075789.375 -11409374.013 21700429.912 10 0 61024 82800.00000 0 7861315.551 -8790432.956 22633686.076 10 0 61024 83700.00000 0 8873266.379 -6156783.480 23128100.304 10 0 61024 84600.00000 0 10093863.426 -3576875.549 23174293.132 10 0 61024 85500.00000 0 11493450.649 -1115179.571 22771552.871 99